www.pogodaiklimat.ru

Погода и климат >> Архив погоды >> Россия >> Камчатский край >> Чемурнаут


ПОГОДА в Чемурнауте

  • Прогноз погоды в Чемурнауте
  • Монитор погоды в Чемурнауте
  • Климат города

АРХИВ ПОГОДЫ в Чемурнауте

Время (UTC), дата Ветер
(напр.,м/с)
 
Видим.   Явления Облачность Т
(С)
Тd
(С)
f
(%)
Тe
(С)
Тes
(С)
Комфортность P
(гПа)
Po
(гПа)
Тmin
(С)
Tmax
(С)
R
(мм)
R24
(мм)
S
(см)
09 19.06 ЮЗ 6 20 км 10/10 300 м
[St]
+6.9 +4.4 84 +2 +2 1009.5 1007.8 +8.3 0.3
12 19.06 ЮЗ 6 10 км слабый ливневой дождь 10/10 300 м
[Cb cap]
+7.1 +5.1 87 +3 +3 1009.3 1007.4
15 19.06 З 7 20 км {ливн. осадки} 10/10 300 м
[St]
+7.6 +5.4 86 +3 +3 1008.8 1007.1
18 19.06 СЗ 5 20 км {ливн. осадки} 10/10 300 м
[St]
+7.2 +4.9 85 +3 +3 1008.5 1006.3
21 19.06 З 10-13
{13}
20 км 9/9 300 м
[St]
+6.6 +4.0 83 +1 +1 1008.1 1006.4 +6.6 0.3
00 20.06 З 9-12
{13}
20 км {ливн. осадки} 9/9 300 м
[St]
+7.2 +4.7 84 +2 +2 1008.7 1007.0
03 20.06 З 6
{12}
20 км 10/10 300 м
[St]
+8.4 +6.0 85 +4 +4 1008.1 1006.4
06 20.06 З 5
{12}
20 км 9/9 300 м
[St]
+7.9 +5.0 82 +4 +4 1007.2 1005.5
09 20.06 З 3 20 км 9/9 300 м
[St]
+7.6 +4.4 80 +5 +5 1007.1 1005.4 +8.4 0.0
12 20.06 З 3 20 км 9/9 300 м
[St]
+7.3 +3.6 77 +5 +5 1007.0 1005.3
15 20.06 20 км н/о +6.9 +3.9 81 +6 +6 1006.5 1004.8
18 20.06 З 3 20 км 10/10 300 м
[St]
+8.5 +4.8 78 +6 +6 1006.3 1004.6
21 20.06 З 4 20 км 10/10 300 м
[St]
+7.2 +4.7 84 +4 +4 1006.8 1007.0 +6.7
00 21.06 З 1 10 км слабый ливневой дождь 10/10 300 м
[Cb cap]
+8.8 +5.8 81 +8 +8 1006.2 1005.5
03 21.06 СЗ 3 20 км {ливн. осадки} 10/10 300 м
[St]
+8.2 +5.5 83 +6 +6 1007.2 1005.5
06 21.06 С 3 20 км {ливн. осадки} 9/9 300 м
[St]
+8.4 +5.3 81 +6 +6 1007.5 1005.8
09 21.06 С 2 20 км 9/9 300 м
[St]
+7.8 +4.9 82 +6 +6 1008.3 1006.6 +8.6 1
12 21.06 Ю 1 20 км 9/9 300 м
[St]
+7.1 +4.3 82 +6 +6 1008.6 1006.9
15 21.06 Ю 1 20 км 9/9 300 м
[St]
+6.3 +3.5 82 +5 +5 1009.1 1007.3
18 21.06 ЮВ 1 20 км 9/9 300 м
[St]
+6.7 +3.6 81 +6 +6 1010.1 1007.3
21 21.06 Ю 5 20 км 9/9 300 м
[St]
+11.6 +7.7 77 +9 +9 1010.5 1008.8 +5.8
00 22.06 Ю 10-14
{14}
20 км 9/4 1000 м
[Sc Ac trans]
+15.9 +9.6 66 +14 +14 1010.9 1009.2
03 22.06 Ю 10-14
{14}
50 км 10/3 1000 м
[Sc Ac trans Ci fib]
+17.0 +9.6 62 +15 +16 1011.2 1009.5
06 22.06 ЮВ 10-14
{14}
50 км 5/0
[Ci fib]
+15.6 +7.8 60 +14 +14 1011.6 1009.9
09 22.06 Ю 10-14
{14}
50 км 6/3 1000 м
[Sc Ci fib]
+12.1 +5.7 65 +9 +9 1012.8 1011.1 +17.4
12 22.06 ЮВ 6
{14}
20 км 4/0
[Ci fib]
+6.5 +2.9 78 +2 +2 1013.4 1011.6
15 22.06 ЮВ 6 20 км 4/1 300 м
[St Ci fib]
+5.2 +2.0 80 0 0 1014.2 1012.4
18 22.06 Ю 5 20 км 4/1 300 м
[St Ci fib]
+6.6 +3.3 79 +3 +3 1014.7 1012.9
21 22.06 Ю 6 50 км 3/0
[Ci fib]
+11.7 +4.7 62 +9 +12 1015.4 1013.7 +4.9
00 23.06 Ю 10-14
{14}
50 км 3/0
[Ci fib]
+15.4 +7.8 60 +13 +14 1015.1 1013.4
03 23.06 Ю 10-14
{14}
50 км 3/0
[Ci fib]
+15.7 +7.5 58 +14 +14 1014.3 1012.6
06 23.06 Ю 10-14
{14}
50 км 3/0
[Ci fib]
+14.4 +6.6 59 +12 +12 1013.9 1012.2
09 23.06 Ю 9-12
{14}
50 км 4/0
[Ci fib]
+10.3 +5.3 71 +6 +6 1014.2 1012.5 +16.0
12 23.06 Ю 9-12
{12}
20 км 4/3 1000 м
[Sc Ci fib]
+5.7 +3.3 85 -0 -0 1013.8 1012.0
15 23.06 Ю 9-12
{14}
20 км 4/3 1000 м
[Sc Ci fib]
+4.4 +2.2 86 -2 -2 1014.1 1012.3
18 23.06 Ю 9-12
{14}
50 км 3/0
[Ci fib]
+4.7 +2.1 83 -2 -1 1012.9 1011.1
21 23.06 Ю 10-14
{14}
50 км 4/0
[Ci fib]
+11.9 +7.6 75 +8 +9 1012.2 1010.5 +4.3
00 24.06 Ю 10-14
{14}
50 км 4/0
[Ci fib]
+16.8 +8.4 58 +15 +16 1011.0 1009.3
03 24.06 Ю 10-14
{14}
50 км 4/0
[Ci fib]
+19.4 +14.7 74 +20 +21 1008.9 1007.2
06 24.06 Ю 9-12
{14}
50 км 5/0
[Ci fib]
+18.9 +8.8 52 +19 +19 1007.9 1006.2
09 24.06 Ю 9-12
{12}
20 км 9/3 1000 м
[Sc Ac trans Ci fib]
+14.1 +4.9 54 +12 +12 1007.5 1005.8 +20.6
12 24.06 ЮВ 9-12
{12}
20 км 9/3 1000 м
[Sc Ac trans Ci fib]
+7.3 +3.6 77 +2 +2 1007.7 1006.0
15 24.06 Ю 9 20 км 9/3 1000 м
[Sc Ac trans Ci fib]
+6.1 +3.2 82 0 0 1007.7 1005.9
18 24.06 Ю 9-12
{12}
20 км 9/3 1000 м
[Sc Ac trans Ci fib]
+6.5 +3.2 79 +1 +1 1006.5 1004.7
21 24.06 Ю 6
{12}
20 км 9/6 1000 м
[Sc Ac trans Ci fib]
+10.4 +5.1 70 +7 +8 1006.4 1004.7 +5.7
00 25.06 СЗ 3
{12}
20 км 9/6 1000 м
[Sc Ac trans]
+12.5 +6.4 66 +11 +14 1006.3 1004.6
03 25.06 С 3 20 км 9/6 1000 м
[Sc Ac trans]
+12.5 +7.4 71 +11 +13 1005.9 1004.2
06 25.06 З 4 20 км 9/8 1000 м
[Sc Ac trans]
+11.5 +7.8 78 +9 +10 1005.1 1003.4
09 25.06 СЗ 1 20 км 9/9 300 м
[St]
+8.5 +5.2 80 +8 +8 1006.4 1004.7 +13.3
12 25.06 З 5 20 км 10/10 300 м
[St]
+6.6 +3.8 82 +2 +2 1007.2 1005.4
15 25.06 СЗ 4 20 км 10/10 300 м
[St]
+6.3 +3.7 83 +3 +3 1008.0 1006.2
18 25.06 З 5 20 км 10/10 300 м
[St]
+5.9 +3.8 86 +1 +1 1008.2 1006.4
21 25.06 З 10-14
{14}
4000 м ливневой дождь 10/10 300 м
[Cb cap]
+6.0 +4.4 89 -0 -0 1007.7 1005.9 +5.8 2
00 26.06 СЗ 9-12
{14}
20 км {ливн. осадки} 10/10 300 м
[St]
+7.9 +5.2 83 +3 +3 1008.2 1006.5
03 26.06 СЗ 9-12
{12}
20 км 9/9 300 м
[St]
+10.2 +6.6 78 +6 +6 1007.8 1006.1
06 26.06 СЗ 6
{12}
20 км 9/4 300 м
[St Ci fib]
+10.9 +6.9 76 +8 +9 1007.6 1005.9

 

Местоположение метеостанции Чемурнаут (Камчатский край, Россия): широта 60.73 долгота 163.00 высота над уровнем моря 14 м.

В архиве по умолчанию представлена погода в Чемурнауте за последнюю неделю. Архивные данные за месяц целиком и за предыдущие месяцы, начиная с января 2011 года, Вы можете получить, выбрав интересующий диапазон дат из раскрывающегося списка и нажав кнопку "Ввод!".

Внимание! Время в таблицах - всемирное. Для получения местного времени необходимо прибавить поправку, которая в Чемурнауте равна 12 ч.

Смотрите также архив погоды в соседних городах и на ближайших метеорологических станциях:

Погода в Оссоре (Камчатский край, Россия) (167 км)
Погода в Тиличиках (Камчатский край, Россия) (167 км)
Погода в Эвенске (Магаданская область, Россия) (242 км)
Погода в Палане (Камчатский край, Россия) (252 км)
Погода в Каменском (Камчатский край, Россия) (258 км)
Погода в Усть-Воямполке (Камчатский край, Россия) (331 км)
Погода на Мысе Озерном (Камчатский край, Россия) (343 км)
Погода в Апуке (Камчатский край, Россия) (362 км)
Погода в Лабазной (Магаданская область, Россия) (370 км)
Погода в Слаутном (Камчатский край, Россия) (372 км)

Пояснения к столбцам:

Ветер - указаны скорость ветра в м/с - средняя за 10 мин, порывы в срок и между сроками (в фигурных скобках) и направление, откуда дует ветер: С - северный, СВ - северо-восточный, В - восточный, ЮВ - юго-восточный, Ю - южный, ЮЗ - юго-западный, З - западный, СЗ - северо-западный.
Видимость - горизонтальная дальность видимости в метрах или километрах. При видимости от 1 до 10 км при отсутствии осадков обычно наблюдается дымка, при ухудшении видимости до 1 км и менее - туман. В сухую погоду видимость может ухудшаться дымом, пылью или мглою.
Явления - указаны атмосферные явления, наблюдавшиеся в срок или в последний час перед сроком; фигурными скобками обозначены явления, наблюдавшиеся между сроками (за 1-3 часа до срока); квадратными скобками обозначены град или гололедные отложения с указанием их диаметра в мм.
Облачность - указаны через наклонную черту общая и нижняя облачность в баллах и высота нижней границы облаков в метрах; квадратными скобками обозначены формы облаков: Ci - перистые, Cs - перисто-слоистые, Cc - перисто-кучевые, Ac - высококучевые, As - высокослоистые, Sc - слоисто-кучевые, Ns - слоисто-дождевые, Cu - кучевые, Cb - кучево-дождевые. Подробнее классификацию облаков см. в Атласе облаков (PDF).
T - Температура воздуха - температура, измеренная на высоте 2 м над землей.
Td - Температура точки росы - температура, при понижении до которой содержащийся в воздухе водяной пар достигнет насыщения.
f - Относительная влажность воздуха - влажноcть воздуха, измеренная на высоте 2 м над землей.
Te - Эффективная температура - температура, которую ощущает одетый по сезону человек в тени. Характеристика душности погоды. При расчете учитывается влияние влажности воздуха и скорости ветра на теплоощущения человека.
Tes - Эффективная температура на солнце - температура, которую ощущает человек, с поправкой на солнечный нагрев. Характеристика знойности погоды. Зависит от высоты солнца над горизонтом, облачности и скорости ветра. Ночью, в пасмурную погоду, а также при ветре 12 м/с и более поправка равна нулю.
P - Атмосферное давление - приведенное к уровню моря атмосферное давление.
Po - Атмосферное давление - измеренное на уровне метеостанции атмосферное давление.
Tmin - Минимальная температура - минимум температуры воздуха на высоте 2 м над землей.
Tmax - Максимальная температура - максимум температуры воздуха на высоте 2 м над землей.
R - Количество осадков - Количество выпавших осадков за период времени, мм. При наведении курсора мыши на число - период времени, за который выпало указанное количество осадков.
R24 - Количество осадков - Количество выпавших осадков за 24 часа, мм.
S - Снежный покров - Высота снежного покрова, см. При наведении курсора мыши на число - состояние снежного покрова и степень покрытия местности в баллах.